PBO Station Position Time Series. Reference Frame : NAM14
Format Version,1.1.0
4-character ID,P599
Station name,GammaGulchCS2006
Begin Date, 2006-04-27
End Date, 2019-10-07
Release Date, 2019-10-08
Reference position, 34.2171708681 North Latitude, -116.5374648224 East Longitude, 1323.88375 meters elevation,
Date, North (mm), East (mm), Vertical (mm), North Std. Deviation (mm), East Std. Deviation (mm),              Vertical Std. Deviation (mm), Quality,
2006-04-27,0.00, 0.00, 0.00, 1.98, 1.69, 7.59, repro,
2006-04-28,1.60, -0.06, 1.35, 1.95, 1.64, 7.41, repro,
2006-04-29,0.39, 0.26, 1.32, 1.91, 1.62, 7.37, repro,
2006-04-30,0.88, 0.16, 4.01, 1.91, 1.63, 7.34, repro,
2006-05-01,-0.09, 0.58, -1.95, 1.90, 1.62, 7.35, repro,
2006-05-02,0.56, 1.32, 3.89, 1.90, 1.62, 7.33, repro,
2006-05-03,0.85, 0.70, 6.96, 1.91, 1.62, 7.35, repro,
2006-05-04,0.91, 0.26, 3.05, 1.92, 1.63, 7.42, repro,
2006-05-05,1.42, -0.21, -1.53, 1.95, 1.68, 7.54, repro,
2006-05-06,2.30, -0.06, 5.91, 1.90, 1.62, 7.33, repro,
2006-05-07,0.92, 0.04, 1.39, 1.91, 1.63, 7.39, repro,
2006-05-08,-0.22, 1.08, 4.60, 1.89, 1.62, 7.33, repro,
2006-05-09,0.12, 1.31, 7.05, 1.98, 1.64, 7.58, repro,
2006-05-10,1.24, 0.97, 5.33, 1.91, 1.63, 7.41, repro,
2006-05-11,1.10, -0.54, 0.14, 1.95, 1.68, 7.54, repro,
2006-05-12,0.74, 1.33, 5.17, 1.90, 1.62, 7.39, repro,
2006-05-13,0.94, -0.56, 1.81, 1.90, 1.62, 7.35, repro,
2006-05-14,0.39, 0.52, 4.31, 1.95, 1.65, 7.49, repro,
2006-05-15,0.92, 1.38, -2.45, 1.91, 1.63, 7.44, repro,
2006-05-16,0.11, 0.45, 6.05, 1.94, 1.67, 7.50, repro,
2006-05-17,1.57, 0.83, 8.79, 1.95, 1.66, 7.54, repro,
2006-05-18,-0.57, -0.37, 10.31, 1.98, 1.64, 7.61, repro,
2006-05-19,0.09, 0.51, 10.45, 2.03, 1.65, 7.69, repro,
2006-05-20,-2.52, -0.87, 7.31, 2.00, 1.65, 7.71, repro,
2006-05-21,-2.41, 0.10, 2.22, 2.06, 1.71, 7.91, repro,
2006-05-22,-0.13, -0.12, 10.31, 2.01, 1.70, 7.76, repro,
2006-05-23,1.57, -0.62, 5.80, 2.01, 1.67, 7.69, repro,
2006-05-24,-0.36, -0.36, 5.16, 2.01, 1.67, 7.71, repro,
2006-05-25,-0.90, 0.74, 7.67, 2.10, 1.68, 8.00, repro,
2006-05-26,0.05, -0.37, 9.01, 2.07, 1.67, 7.94, repro,
2006-05-27,1.95, 0.63, 18.38, 1.99, 1.66, 7.65, repro,
2006-05-28,1.38, 1.45, 2.90, 1.97, 1.64, 7.55, repro,
2006-05-29,0.28, 0.76, 10.15, 2.02, 1.68, 7.77, repro,
2006-05-30,0.32, 0.39, 5.12, 2.14, 1.79, 8.15, repro,
2006-05-31,-0.94, 0.77, 4.97, 2.06, 1.70, 7.87, repro,
2006-06-01,1.33, 0.33, 0.69, 2.02, 1.68, 7.77, repro,
2006-06-02,0.57, 0.92, 3.62, 2.10, 1.73, 7.96, repro,
2006-06-03,-0.10, 0.12, 4.57, 2.06, 1.70, 7.86, repro,
2006-06-04,-0.24, -0.23, 6.85, 2.06, 1.69, 7.80, repro,
2006-06-05,-1.94, 1.03, 8.64, 2.07, 1.70, 7.83, repro,
2006-06-06,-0.51, 1.16, 9.86, 2.02, 1.66, 7.62, repro,
2006-06-07,1.31, 2.81, 0.48, 2.07, 1.72, 7.92, repro,
2006-06-08,-0.14, 2.01, 10.85, 2.08, 1.72, 8.00, repro,
2006-06-09,-0.15, 0.72, 16.32, 2.05, 1.68, 7.82, repro,
2006-06-10,0.24, -0.47, 6.91, 2.00, 1.64, 7.57, repro,
2006-06-11,-0.32, 0.87, 12.99, 2.01, 1.66, 7.65, repro,
2006-06-12,1.02, 2.06, 5.79, 2.05, 1.73, 7.80, repro,
2006-06-13,-4.14, -1.33, -3.58, 2.06, 1.69, 7.89, repro,
2006-06-14,1.36, 2.00, 6.21, 1.98, 1.64, 7.60, repro,
2006-06-15,2.85, 0.37, 7.56, 2.03, 1.68, 7.84, repro,
2006-06-16,1.21, 0.77, 6.92, 2.04, 1.70, 7.74, repro,
2006-06-17,0.56, 1.19, 9.24, 1.99, 1.63, 7.56, repro,
2006-06-18,0.76, 0.67, 11.18, 1.99, 1.68, 7.78, repro,
2006-06-19,0.20, 0.53, 7.39, 2.00, 1.68, 7.82, repro,
2006-06-20,1.17, 0.80, 9.25, 2.01, 1.69, 7.83, repro,
2006-06-21,-0.31, 1.20, 7.66, 2.04, 1.71, 7.85, repro,
2006-06-22,0.69, 0.75, 7.30, 2.10, 1.79, 8.11, repro,
2006-06-23,0.70, 0.72, 5.21, 2.01, 1.69, 7.85, repro,
2006-06-24,1.34, 0.80, 10.09, 2.00, 1.68, 7.80, repro,
2006-06-25,-1.22, 1.47, 9.15, 2.02, 1.71, 8.00, repro,
2006-06-26,0.94, 0.49, 4.73, 2.12, 1.81, 8.13, repro,
2006-06-27,1.14, 0.83, 3.66, 2.10, 1.81, 8.15, repro,
2006-06-28,1.20, 0.66, 5.50, 2.13, 1.76, 8.27, repro,
2006-06-29,-0.92, 1.42, 2.15, 1.98, 1.71, 7.74, repro,
2006-06-30,1.36, 2.39, 4.48, 2.03, 1.72, 7.99, repro,
2006-07-01,0.63, 1.39, 9.57, 2.11, 1.76, 8.35, repro,
2006-07-02,0.90, 1.42, -2.93, 2.20, 1.89, 8.62, repro,
2006-07-03,1.20, 1.84, -1.89, 2.09, 1.70, 8.28, repro,
2006-07-04,1.44, 1.00, 1.12, 1.98, 1.66, 7.80, repro,
2006-07-05,0.29, 1.86, 9.49, 2.02, 1.72, 7.96, repro,
2006-07-06,2.89, -0.51, 2.63, 1.97, 1.63, 7.63, repro,
2006-07-07,-0.37, 2.71, 8.57, 2.31, 1.87, 9.20, repro,
2006-07-08,-1.79, 0.76, 1.38, 2.23, 1.88, 8.84, repro,
2006-07-09,-2.02, 2.47, 17.63, 2.06, 1.76, 8.32, repro,
2006-07-10,-0.06, 0.66, 1.68, 1.99, 1.64, 7.70, repro,
2006-07-11,2.85, -0.26, 2.34, 1.97, 1.63, 7.63, repro,
2006-07-12,0.59, 1.86, 11.23, 2.00, 1.65, 7.82, repro,
2006-07-13,0.16, 2.77, 12.27, 2.02, 1.71, 8.09, repro,
2006-07-14,2.33, 1.01, 7.66, 1.98, 1.67, 7.81, repro,
2006-07-15,1.19, 0.80, 9.82, 1.96, 1.64, 7.66, repro,
2006-07-16,1.07, 1.27, 3.56, 1.97, 1.66, 7.78, repro,
2006-07-17,0.50, 0.95, 3.78, 2.09, 1.77, 8.29, repro,
2006-07-18,1.10, 1.07, 5.18, 1.96, 1.69, 7.61, repro,
2006-07-19,2.29, -0.56, 7.65, 1.96, 1.69, 7.56, repro,
2006-07-20,3.02, -0.07, 3.14, 1.92, 1.64, 7.42, repro,
2006-07-21,0.80, 1.39, 6.34, 1.90, 1.63, 7.37, repro,
2006-07-22,3.32, 4.06, 9.57, 1.96, 1.70, 7.77, repro,
2006-07-23,0.20, 0.71, 6.73, 1.97, 1.69, 7.65, repro,
2006-07-24,-0.48, -0.68, 4.07, 1.95, 1.69, 7.57, repro,
2006-07-25,2.01, 0.09, 0.39, 2.09, 1.93, 8.41, repro,
2006-07-26,-1.04, 1.38, 8.82, 1.98, 1.73, 7.58, repro,
2006-07-27,0.90, 1.66, 1.39, 1.97, 1.73, 7.81, repro,
2006-07-28,1.70, 1.38, 3.89, 1.92, 1.63, 7.42, repro,
2006-07-29,0.64, -0.15, -2.07, 1.96, 1.68, 7.58, repro,
2006-07-30,1.29, 1.55, 4.38, 1.95, 1.67, 7.48, repro,
2006-07-31,0.79, -0.05, 7.54, 1.94, 1.69, 7.47, repro,
2006-08-01,0.86, 2.29, 14.53, 1.91, 1.62, 7.37, repro,
2006-08-02,0.46, 2.39, 9.50, 1.98, 1.73, 7.82, repro,
2006-08-03,1.27, 1.88, 4.02, 1.99, 1.74, 7.92, repro,
2006-08-04,0.62, 1.42, 4.77, 2.00, 1.68, 7.80, repro,
2006-08-05,0.52, 2.52, 3.73, 1.99, 1.72, 7.81, repro,
2006-08-06,1.66, 0.72, 0.86, 1.94, 1.67, 7.67, repro,
2006-08-07,1.30, 1.53, 8.10, 1.95, 1.67, 7.63, repro,
2006-08-08,-0.08, 0.14, 12.03, 2.00, 1.67, 7.76, repro,
2006-08-09,1.54, 2.55, 5.66, 1.95, 1.70, 7.53, repro,
2006-08-10,0.83, 2.61, -4.11, 1.93, 1.65, 7.49, repro,
2006-08-11,1.17, 2.02, 4.38, 1.93, 1.65, 7.47, repro,
2006-08-12,1.16, 2.58, 8.46, 1.92, 1.63, 7.41, repro,
2006-08-13,1.61, 1.25, 10.47, 1.96, 1.70, 7.57, repro,
2006-08-14,0.88, -0.14, 6.88, 1.96, 1.71, 7.57, repro,
2006-08-15,0.85, 0.62, 3.77, 2.05, 1.73, 7.81, repro,
2006-08-16,0.10, 1.80, 8.37, 1.96, 1.69, 7.53, repro,
2006-08-17,3.00, 1.93, 8.16, 2.04, 1.72, 7.75, repro,
2006-08-18,1.44, 2.38, 6.79, 1.96, 1.73, 7.63, repro,
2006-08-19,2.15, 1.60, 0.81, 1.90, 1.62, 7.36, repro,
2006-08-20,1.13, 1.94, 7.42, 1.90, 1.64, 7.39, repro,
2006-08-21,-0.47, 2.49, 0.72, 1.93, 1.67, 7.52, repro,
2006-08-22,-1.11, 3.10, 10.78, 2.02, 1.77, 7.95, repro,
2006-08-23,0.75, 1.41, 9.67, 1.97, 1.71, 7.76, repro,
2006-08-24,-0.01, 2.57, 10.37, 1.92, 1.65, 7.44, repro,
2006-08-25,1.28, 1.27, 12.86, 1.95, 1.70, 7.71, repro,
2006-08-26,2.09, 0.52, 8.91, 1.98, 1.74, 7.85, repro,
2006-08-27,1.80, 1.85, 10.61, 1.99, 1.74, 7.84, repro,
2006-08-28,1.41, 1.51, 3.92, 1.99, 1.73, 7.80, repro,
2006-08-29,1.78, 1.91, 1.50, 1.98, 1.74, 7.84, repro,
2006-08-30,1.52, 1.63, 11.91, 2.03, 1.77, 8.07, repro,
2006-08-31,1.46, 4.54, 8.21, 2.03, 1.81, 8.22, repro,
2006-09-01,0.93, 2.19, 8.93, 2.04, 1.78, 8.03, repro,
2006-09-02,1.85, 3.15, 8.90, 2.04, 1.83, 8.11, repro,
2006-09-03,1.26, 2.19, 5.36, 2.06, 1.92, 8.32, repro,
2006-09-04,4.25, 4.25, 4.22, 2.24, 2.02, 9.16, repro,
2006-09-05,1.84, 3.25, -2.66, 2.04, 1.80, 8.11, repro,
2006-09-06,2.53, 0.77, 6.10, 2.06, 1.83, 8.22, repro,
2006-09-07,1.39, -0.27, 8.94, 2.12, 1.86, 8.38, repro,
2006-09-08,3.76, 0.64, 10.11, 2.05, 1.87, 8.31, repro,
2006-09-09,1.39, 1.07, -2.13, 1.97, 1.71, 7.69, repro,
2006-09-10,2.09, 2.32, 0.41, 1.95, 1.71, 7.64, repro,
2006-09-11,2.66, 3.39, 4.47, 1.99, 1.78, 7.76, repro,
2006-09-12,3.14, 1.32, 6.87, 1.96, 1.70, 7.61, repro,
2006-09-13,2.46, 2.32, 6.05, 1.96, 1.72, 7.71, repro,
2006-09-14,1.66, 1.61, 4.11, 2.06, 1.79, 7.99, repro,
2006-09-15,4.65, 4.94, 20.14, 1.99, 1.70, 7.77, repro,
2006-09-16,1.95, 2.61, 7.39, 1.96, 1.69, 7.66, repro,
2006-09-17,1.88, 2.99, 8.16, 1.98, 1.73, 7.63, repro,
2006-09-18,1.92, 1.87, 9.54, 1.93, 1.66, 7.49, repro,
2006-09-19,2.24, 1.49, 4.27, 1.97, 1.69, 7.65, repro,
2006-09-20,2.50, 2.31, 4.66, 1.98, 1.73, 7.89, repro,
2006-09-21,2.05, 1.83, 6.72, 1.95, 1.70, 7.65, repro,
2006-09-22,2.17, 2.67, 15.32, 2.08, 1.83, 8.03, repro,
2006-09-23,2.74, 2.21, 8.37, 2.07, 1.78, 7.91, repro,
2006-09-24,2.64, 1.71, 1.12, 2.10, 1.74, 8.18, repro,
2006-09-25,2.39, 2.15, 2.93, 2.11, 1.78, 8.25, repro,
2006-09-26,4.13, 2.13, 8.78, 2.01, 1.75, 7.88, repro,
2006-09-27,2.15, 3.23, -2.14, 2.09, 1.83, 8.08, repro,
2006-09-28,0.77, 1.41, 5.07, 2.03, 1.75, 7.88, repro,
2006-09-29,2.49, 0.99, 1.42, 2.06, 1.82, 8.20, repro,
2006-09-30,1.82, 1.23, 7.25, 1.98, 1.71, 7.71, repro,
2006-10-01,3.50, 1.31, 2.72, 1.95, 1.69, 7.62, repro,
2006-10-02,0.81, 2.76, -6.43, 2.02, 1.76, 7.78, repro,
2006-10-03,-0.27, 1.82, 2.31, 2.07, 1.83, 7.99, repro,
2006-10-04,-1.32, 0.39, 3.10, 2.02, 1.71, 7.77, repro,
2006-10-05,-0.70, 0.86, 9.17, 2.03, 1.73, 8.05, repro,
2006-10-06,1.60, 0.75, 1.94, 2.03, 1.72, 7.99, repro,
2006-10-07,2.61, 2.19, 1.82, 2.04, 1.77, 8.13, repro,
2006-10-08,2.46, 1.47, 0.03, 2.03, 1.75, 8.01, repro,
2006-10-09,1.09, 1.08, 5.65, 2.12, 1.88, 8.58, repro,
2006-10-10,1.84, 1.39, 3.00, 1.97, 1.69, 7.72, repro,
2006-10-11,1.01, 1.83, 7.23, 2.00, 1.77, 7.94, repro,
2006-10-12,1.51, 1.21, 7.52, 1.98, 1.70, 7.71, repro,
2006-10-13,0.75, 0.45, 2.82, 1.96, 1.75, 7.88, repro,
2006-10-14,1.77, 1.28, 6.93, 2.03, 1.85, 8.04, repro,
2006-10-15,3.46, 0.55, 11.50, 1.94, 1.72, 7.69, repro,
2006-10-16,1.96, 1.67, 19.96, 2.01, 1.76, 7.93, repro,
2006-10-17,3.41, 2.95, 9.64, 2.02, 1.77, 8.00, repro,
2006-10-18,2.06, 0.42, 9.27, 1.98, 1.74, 7.95, repro,
2006-10-19,1.31, 1.83, 9.16, 2.00, 1.77, 7.90, repro,
2006-10-20,2.20, 1.44, 6.00, 2.21, 1.96, 9.38, repro,
2006-10-21,1.75, 1.44, 10.35, 2.11, 1.82, 8.62, repro,
2006-10-22,2.19, 1.16, 0.72, 1.95, 1.75, 7.80, repro,
2006-10-23,2.07, 0.25, 0.03, 2.08, 1.83, 8.36, repro,
2006-10-24,1.09, 0.14, 3.70, 2.00, 1.79, 7.99, repro,
2006-10-25,2.77, 1.86, 10.43, 2.00, 1.79, 7.82, repro,
2006-10-26,2.81, 2.28, 5.24, 1.96, 1.76, 7.69, repro,
2006-10-27,2.72, 2.58, -1.14, 1.99, 1.85, 8.04, repro,
2006-10-28,1.11, 0.90, 3.23, 2.11, 1.83, 8.56, repro,
2006-10-29,1.58, 1.07, 6.89, 1.94, 1.76, 7.76, repro,
2006-10-30,1.52, 2.77, 7.78, 1.91, 1.73, 7.64, repro,
2006-10-31,1.23, 1.65, 8.75, 1.93, 1.75, 7.66, repro,
2006-11-01,1.36, 1.17, 8.20, 1.96, 1.82, 7.90, repro,
2006-11-02,1.38, 2.57, 1.19, 1.91, 1.71, 7.56, repro,
2006-11-03,1.29, 1.28, 4.59, 1.97, 1.82, 7.96, repro,
2006-11-04,0.94, 1.08, 3.56, 1.97, 1.75, 7.78, repro,
2006-11-05,1.25, 2.14, 7.09, 1.96, 1.75, 7.73, repro,
2006-11-06,1.03, 1.50, 3.68, 1.88, 1.66, 7.44, repro,
2006-11-07,2.72, 1.98, 5.77, 2.08, 1.90, 8.27, repro,
2006-11-08,1.33, 1.53, 14.28, 2.01, 1.78, 7.98, repro,
2006-11-09,1.87, 3.08, 13.35, 2.01, 1.83, 8.11, repro,
2006-11-10,1.49, 1.96, 5.60, 1.94, 1.69, 7.68, repro,
2006-11-11,1.87, 2.72, 9.15, 1.97, 1.74, 7.89, repro,
2006-11-12,2.56, 0.34, 9.94, 2.01, 1.81, 8.06, repro,
2006-11-13,3.32, 1.04, 6.70, 1.97, 1.74, 7.85, repro,
2006-11-14,5.56, -5.35, 17.34, 1.89, 1.65, 7.45, repro,
2006-11-15,1.18, 2.12, 2.49, 1.87, 1.67, 7.40, repro,
2006-11-16,1.87, 1.72, 7.38, 1.87, 1.66, 7.40, repro,
2006-11-17,1.76, 2.28, 13.29, 1.88, 1.64, 7.39, repro,
2006-11-18,1.02, 3.94, 4.16, 1.89, 1.66, 7.43, repro,
2006-11-19,1.80, 1.19, -2.89, 1.94, 1.66, 7.64, repro,
2006-11-20,1.13, 2.26, 2.07, 1.94, 1.66, 7.62, repro,
2006-11-21,2.80, 2.13, 4.86, 1.87, 1.65, 7.37, repro,
2006-11-22,0.96, 2.57, 1.83, 1.87, 1.65, 7.36, repro,
2006-11-23,2.41, 1.61, -0.81, 1.91, 1.70, 7.60, repro,
2006-11-24,2.50, 1.89, 1.55, 1.99, 1.78, 7.91, repro,
2006-11-25,2.02, 1.28, 2.73, 1.91, 1.65, 7.41, repro,
2006-11-26,1.62, 0.78, 2.92, 1.91, 1.67, 7.53, repro,
2006-11-27,0.84, 2.46, 6.11, 1.91, 1.67, 7.51, repro,
2006-11-28,2.13, 1.02, 13.54, 1.88, 1.66, 7.39, repro,
2006-11-29,1.42, 1.79, 3.51, 1.88, 1.66, 7.40, repro,
2006-11-30,2.15, 2.35, -5.53, 1.89, 1.66, 7.39, repro,
2006-12-01,1.31, 2.10, -1.41, 1.94, 1.66, 7.60, repro,
2006-12-02,0.57, 2.55, -4.48, 1.87, 1.65, 7.36, repro,
2006-12-03,2.32, 2.09, -2.92, 1.88, 1.67, 7.42, repro,
2006-12-04,2.29, 1.59, -3.51, 1.92, 1.67, 7.51, repro,
2006-12-05,1.49, 1.87, -0.59, 1.97, 1.81, 7.77, repro,
2006-12-06,2.56, 2.20, 2.79, 2.04, 1.83, 8.10, repro,
2006-12-07,2.38, 2.18, -2.02, 1.91, 1.73, 7.56, repro,
2006-12-08,2.57, 1.64, -0.74, 1.96, 1.81, 7.75, repro,
2006-12-09,1.89, 1.86, 4.89, 2.06, 1.87, 8.12, repro,
2006-12-10,1.77, 2.38, 9.68, 1.97, 1.75, 7.66, repro,
2006-12-11,3.64, -0.51, -3.84, 1.94, 1.70, 7.62, repro,
2006-12-12,2.50, 1.61, -2.20, 2.02, 1.77, 7.96, repro,
2006-12-13,2.47, 1.61, 2.92, 1.91, 1.74, 7.58, repro,
2006-12-14,2.46, 0.61, 4.26, 1.87, 1.69, 7.43, repro,
2006-12-15,1.98, 1.96, 7.94, 1.99, 1.79, 7.90, repro,
2006-12-16,2.08, 2.31, 10.82, 2.03, 1.79, 7.97, repro,
2006-12-17,-0.74, 3.13, 2.56, 1.96, 1.78, 7.85, repro,
2006-12-18,2.10, 0.64, 0.97, 2.06, 1.87, 8.41, repro,
2006-12-19,3.68, 1.08, -4.19, 1.99, 1.85, 7.98, repro,
2006-12-20,2.43, 0.79, 4.65, 2.00, 1.86, 8.01, repro,
2006-12-21,1.70, 1.08, -1.06, 1.91, 1.81, 7.59, repro,
2006-12-22,3.14, -0.68, -1.49, 1.98, 1.85, 7.95, repro,
2006-12-23,2.62, 0.90, -5.05, 1.95, 1.77, 7.94, repro,
2006-12-24,2.29, 2.16, -1.37, 1.87, 1.69, 7.45, repro,
2006-12-25,2.34, 1.13, -4.70, 1.89, 1.74, 7.51, repro,
2006-12-26,2.10, 0.98, 3.99, 1.97, 1.78, 7.92, repro,
2006-12-27,1.16, 4.37, 5.82, 2.00, 1.81, 8.02, repro,
2006-12-28,4.18, -2.18, -4.52, 2.13, 1.98, 8.66, repro,
2006-12-29,4.08, 0.38, -1.68, 2.03, 1.87, 8.25, repro,
2006-12-30,2.76, 1.43, 1.93, 1.93, 1.76, 7.65, repro,
2006-12-31,2.39, 2.02, 0.66, 2.11, 1.92, 8.59, repro,
2007-01-01,3.55, 0.46, -4.67, 2.13, 1.98, 8.60, repro,
2007-01-02,3.25, 1.80, -3.19, 2.08, 1.94, 8.36, repro,
2007-01-03,2.83, 1.64, 5.72, 1.93, 1.83, 7.71, repro,
2007-01-04,2.53, 2.36, 5.70, 1.88, 1.71, 7.53, repro,
2007-01-05,4.27, 1.96, 1.58, 1.89, 1.76, 7.60, repro,
2007-01-06,3.23, 1.40, -0.94, 1.89, 1.75, 7.49, repro,
2007-01-07,2.38, 1.61, -9.93, 1.97, 1.70, 7.68, repro,
2007-01-08,2.88, 1.63, -7.81, 1.93, 1.74, 7.56, repro,
2007-01-09,2.32, 1.14, -1.18, 1.96, 1.75, 7.53, repro,
2007-01-10,1.69, 1.89, -0.37, 1.93, 1.70, 7.48, repro,
2007-01-11,0.93, -0.12, -2.09, 2.00, 1.77, 7.75, repro,
2007-01-12,1.84, 2.43, -6.65, 1.89, 1.64, 7.35, repro,
2007-01-13,2.06, 1.84, -8.90, 1.85, 1.67, 7.25, repro,
2007-01-14,2.85, 1.86, -6.77, 1.87, 1.69, 7.31, repro,
2007-01-15,2.49, 2.47, -6.56, 1.88, 1.69, 7.37, repro,
2007-01-16,3.34, 1.92, -3.99, 1.92, 1.70, 7.49, repro,
2007-01-17,2.74, 1.71, -6.52, 1.89, 1.71, 7.42, repro,
2007-01-18,2.14, 2.75, -10.05, 1.99, 1.76, 7.80, repro,
2007-01-19,3.09, 2.10, -6.84, 1.93, 1.72, 7.58, repro,
2007-01-20,2.74, 2.23, -3.03, 1.93, 1.71, 7.57, repro,
2007-01-21,3.48, 2.99, -0.46, 1.88, 1.70, 7.32, repro,
2007-01-22,2.85, 1.65, -9.70, 1.86, 1.64, 7.21, repro,
2007-01-23,1.96, 2.76, -9.21, 1.89, 1.70, 7.37, repro,
2007-01-24,1.72, 1.76, -11.42, 1.82, 1.63, 7.08, repro,
2007-01-25,2.17, 2.42, -10.53, 1.92, 1.73, 7.36, repro,
2007-01-26,2.07, 2.66, -2.47, 1.88, 1.69, 7.26, repro,
2007-01-27,1.62, 2.61, 1.17, 1.85, 1.63, 7.09, repro,
2007-01-28,2.18, 2.32, -4.77, 1.88, 1.70, 7.35, repro,
2007-01-29,2.21, 1.73, -9.12, 1.89, 1.64, 7.31, repro,
2007-01-30,1.74, 2.59, -9.51, 1.87, 1.69, 7.26, repro,
2007-01-31,1.77, 1.58, 5.70, 1.88, 1.70, 7.28, repro,
2007-02-01,0.51, 2.82, 2.15, 1.86, 1.68, 7.30, repro,
2007-02-02,1.36, 2.77, 0.64, 1.93, 1.71, 7.51, repro,
2007-02-03,2.74, 2.03, -7.35, 1.92, 1.70, 7.53, repro,
2007-02-04,1.73, 2.25, -2.31, 1.88, 1.69, 7.31, repro,
2007-02-05,1.50, 2.22, -6.12, 1.95, 1.80, 7.65, repro,
2007-02-06,1.51, 3.19, -5.86, 1.92, 1.70, 7.33, repro,
2007-02-07,2.39, 2.66, -0.43, 1.88, 1.70, 7.28, repro,
2007-02-08,1.42, 1.77, -6.17, 1.92, 1.72, 7.43, repro,
2007-02-09,2.53, 2.72, -3.75, 1.88, 1.70, 7.31, repro,
2007-02-10,1.48, 3.19, 3.52, 1.89, 1.70, 7.36, repro,
2007-02-11,2.53, 1.88, -0.02, 1.97, 1.75, 7.68, repro,
2007-02-12,2.12, 3.96, -1.86, 1.88, 1.69, 7.26, repro,
2007-02-13,1.61, 2.02, 1.94, 1.87, 1.69, 7.25, repro,
2007-02-14,3.28, 1.83, -4.38, 1.85, 1.62, 7.12, repro,
2007-02-15,2.13, 2.39, 1.92, 1.89, 1.71, 7.39, repro,
2007-02-16,2.40, 2.01, -4.85, 1.88, 1.70, 7.31, repro,
2007-02-17,2.01, 2.83, 1.16, 1.90, 1.75, 7.38, repro,
2007-02-18,3.35, 2.67, 1.23, 1.89, 1.63, 7.30, repro,
2007-02-19,2.93, 1.94, 17.54, 1.88, 1.68, 7.23, repro,
2007-02-20,1.60, 1.78, 2.62, 1.87, 1.66, 7.29, repro,
2007-02-21,2.27, 2.89, 3.23, 1.90, 1.70, 7.34, repro,
2007-02-22,2.64, 2.79, 0.41, 1.88, 1.70, 7.32, repro,
2007-02-23,0.61, 5.10, 12.06, 1.91, 1.68, 7.39, repro,
2007-02-24,2.06, 2.39, 5.23, 1.86, 1.62, 7.18, repro,
2007-02-25,1.51, 4.35, 8.67, 1.88, 1.69, 7.31, repro,
2007-02-26,4.84, 6.58, 4.64, 1.86, 1.63, 7.25, repro,
2007-02-27,3.36, 8.58, 27.87, 1.91, 1.71, 7.41, repro,
2007-02-28,5.03, 1.69, 10.18, 1.84, 1.64, 7.13, repro,
2007-03-01,2.35, 2.80, 10.65, 1.91, 1.69, 7.38, repro,
2007-03-02,2.90, 3.02, -0.13, 1.96, 1.77, 7.61, repro,
2007-03-03,2.53, 2.21, -2.81, 1.87, 1.66, 7.26, repro,
2007-03-04,2.72, 2.91, -2.03, 1.88, 1.66, 7.29, repro,
2007-03-05,3.14, 1.62, -0.46, 1.94, 1.74, 7.46, repro,
2007-03-06,3.23, 1.95, 1.60, 1.88, 1.66, 7.27, repro,
2007-03-07,3.21, 2.51, 0.37, 1.88, 1.65, 7.24, repro,
2007-03-08,2.63, 0.82, 6.67, 1.88, 1.65, 7.22, repro,
2007-03-09,3.05, 1.78, 3.55, 1.96, 1.74, 7.61, repro,
2007-03-10,1.57, 2.29, 6.35, 1.92, 1.70, 7.47, repro,
2007-03-11,2.54, 1.77, -0.87, 1.91, 1.75, 7.54, repro,
2007-03-12,2.37, 2.26, -0.10, 1.90, 1.70, 7.45, repro,
2007-03-13,2.78, 1.73, 4.54, 1.86, 1.61, 7.11, repro,
2007-03-14,2.90, 2.82, 7.43, 1.86, 1.61, 7.10, repro,
2007-03-15,2.16, 2.45, 5.76, 1.89, 1.65, 7.25, repro,
2007-03-16,2.44, 1.52, 2.82, 1.88, 1.67, 7.27, repro,
2007-03-17,1.53, 2.49, 7.39, 1.86, 1.62, 7.14, repro,
2007-03-18,1.50, 1.86, 8.61, 1.91, 1.69, 7.47, repro,
2007-03-19,1.91, 2.44, 12.18, 1.86, 1.61, 7.15, repro,
2007-03-20,1.09, -0.17, 10.98, 1.96, 1.68, 7.49, repro,
2007-03-21,1.94, 0.73, 15.19, 1.95, 1.68, 7.50, repro,
2007-03-22,3.46, 0.61, 6.99, 1.88, 1.66, 7.35, repro,
2007-03-23,3.15, 0.90, 8.74, 1.88, 1.64, 7.27, repro,
2007-03-24,2.40, 1.18, 3.59, 1.92, 1.69, 7.43, repro,
2007-03-25,1.25, 1.06, 8.15, 1.91, 1.62, 7.32, repro,
2007-03-26,2.25, -0.01, 5.71, 1.86, 1.61, 7.15, repro,
2007-03-27,1.18, 2.51, 6.26, 1.91, 1.64, 7.37, repro,
2007-03-28,3.53, -0.54, 4.62, 1.97, 1.72, 7.65, repro,
2007-03-29,2.83, 0.86, 4.41, 1.87, 1.63, 7.26, repro,
2007-03-30,1.96, 1.79, 1.98, 1.86, 1.61, 7.13, repro,
2007-03-31,1.98, 1.31, 5.10, 1.87, 1.61, 7.16, repro,
2007-04-01,1.88, 1.71, 11.44, 1.86, 1.60, 7.11, repro,
2007-04-02,2.65, 1.94, 9.68, 1.86, 1.60, 7.13, repro,
2007-04-03,2.23, 2.22, 6.50, 1.96, 1.69, 7.63, repro,
2007-04-04,1.70, 1.81, 4.28, 1.92, 1.71, 7.55, repro,
2007-04-05,0.91, 1.58, 3.17, 1.98, 1.76, 7.80, repro,
2007-04-06,1.75, 1.02, 4.55, 1.96, 1.72, 7.63, repro,
2007-04-07,2.76, 1.20, 6.93, 1.89, 1.65, 7.30, repro,
2007-04-08,1.33, 1.01, 10.33, 1.86, 1.60, 7.14, repro,
2007-04-09,2.57, 1.77, -0.02, 1.90, 1.66, 7.35, repro,
2007-04-10,2.22, 0.59, 2.52, 1.91, 1.66, 7.33, repro,
2007-04-11,2.22, 3.19, 17.45, 1.88, 1.61, 7.21, repro,
2007-04-12,2.64, 0.93, 5.35, 1.88, 1.60, 7.18, repro,
2007-04-13,2.77, 0.45, -0.02, 1.89, 1.66, 7.34, repro,
2007-04-14,3.97, 3.48, 15.50, 1.91, 1.68, 7.37, repro,
2007-04-15,3.07, 1.65, 7.00, 1.89, 1.64, 7.34, repro,
2007-04-16,3.52, -1.40, 0.93, 1.88, 1.62, 7.31, repro,
2007-04-17,2.14, 1.44, 4.83, 1.88, 1.60, 7.18, repro,
2007-04-18,3.41, 5.62, 9.07, 1.88, 1.61, 7.22, repro,
2007-04-19,2.53, 1.15, 7.63, 1.88, 1.61, 7.21, repro,
2007-04-20,2.37, 1.24, 4.84, 1.87, 1.62, 7.27, repro,
2007-04-21,2.63, 1.38, 6.76, 1.86, 1.60, 7.19, repro,
2007-04-22,2.27, 4.57, 10.04, 1.90, 1.62, 7.31, repro,
2007-04-23,2.66, 0.57, 3.35, 1.91, 1.66, 7.31, repro,
2007-04-24,4.15, 0.63, 0.97, 1.89, 1.63, 7.20, repro,
2007-04-25,2.87, 1.31, 5.72, 1.89, 1.65, 7.31, repro,
2007-04-26,2.71, 1.16, 8.25, 1.88, 1.62, 7.26, repro,
2007-04-27,3.51, 1.31, 7.55, 1.88, 1.60, 7.21, repro,
2007-04-28,3.14, 1.70, 3.97, 1.89, 1.60, 7.18, repro,
2007-04-29,3.04, 0.99, 2.48, 1.88, 1.59, 7.13, repro,
2007-04-30,2.82, 3.09, 12.55, 1.99, 1.72, 7.67, repro,
2007-05-01,1.78, 2.16, 4.37, 1.93, 1.62, 7.41, repro,
2007-05-02,0.75, 1.16, 8.77, 1.95, 1.62, 7.48, repro,
2007-05-03,1.15, 4.20, -0.62, 1.94, 1.62, 7.43, repro,
2007-05-04,3.33, 3.74, 20.02, 1.89, 1.59, 7.17, repro,
2007-05-05,3.16, 0.79, 7.12, 1.92, 1.66, 7.33, repro,
2007-05-06,5.08, 1.56, 3.22, 1.93, 1.62, 7.39, repro,
2007-05-07,3.05, 2.04, 4.61, 1.89, 1.60, 7.20, repro,
2007-05-08,2.73, 0.40, 2.48, 1.89, 1.60, 7.21, repro,
2007-05-09,2.44, 1.24, 4.15, 1.88, 1.59, 7.14, repro,
2007-05-10,2.10, 1.82, 2.94, 2.10, 1.71, 7.93, repro,
2007-05-11,2.08, 2.32, 3.66, 1.99, 1.67, 7.61, repro,
2007-05-12,3.46, 2.06, 5.87, 1.93, 1.67, 7.42, repro,
2007-05-13,3.14, 0.79, 5.06, 1.94, 1.63, 7.37, repro,
2007-05-14,2.54, 0.65, 3.52, 1.93, 1.63, 7.30, repro,
2007-05-15,2.57, 1.24, 6.76, 1.90, 1.59, 7.16, repro,
2007-05-16,2.41, 3.00, 2.43, 1.90, 1.61, 7.21, repro,
2007-05-17,3.74, 1.48, 4.31, 1.91, 1.63, 7.28, repro,
2007-05-18,2.88, 1.40, 0.50, 1.96, 1.69, 7.49, repro,
2007-05-19,2.53, 1.48, 0.42, 1.93, 1.63, 7.28, repro,
2007-05-20,2.80, 1.34, 7.37, 2.01, 1.73, 7.57, repro,
2007-05-21,2.63, 1.50, 7.67, 1.93, 1.63, 7.30, repro,
2007-05-22,3.66, 2.93, 6.48, 1.92, 1.63, 7.26, repro,
2007-05-23,4.20, 1.50, 7.97, 1.97, 1.70, 7.47, repro,
2007-05-24,2.59, 1.19, 4.85, 2.11, 1.82, 8.08, repro,
2007-05-25,2.96, 1.53, 4.81, 1.93, 1.64, 7.35, repro,
2007-05-26,1.36, 2.23, 6.27, 1.94, 1.63, 7.30, repro,
2007-05-27,2.84, 2.19, 10.26, 1.90, 1.61, 7.21, repro,
2007-05-28,1.82, 2.65, 9.72, 1.90, 1.59, 7.15, repro,
2007-05-29,2.15, 1.78, 6.66, 1.90, 1.60, 7.12, repro,
2007-05-30,2.09, 1.21, 1.71, 1.94, 1.62, 7.27, repro,
2007-05-31,2.20, 2.80, 6.06, 1.95, 1.64, 7.32, repro,
2007-06-01,1.99, 1.98, 8.40, 1.91, 1.60, 7.22, repro,
2007-06-02,2.20, 2.05, 5.97, 1.89, 1.60, 7.21, repro,
2007-06-03,2.17, 0.82, 9.57, 1.93, 1.65, 7.30, repro,
2007-06-04,2.47, 2.59, 8.72, 1.89, 1.60, 7.19, repro,
2007-06-05,4.01, 2.73, 4.91, 1.93, 1.62, 7.30, repro,
2007-06-06,3.53, 4.96, 33.24, 1.89, 1.60, 7.22, repro,
2007-06-07,2.86, 0.53, 15.84, 1.88, 1.59, 7.16, repro,
2007-06-08,3.51, 1.84, 8.89, 1.87, 1.58, 7.12, repro,
2007-06-09,2.87, 1.26, 3.53, 1.96, 1.72, 7.48, repro,
2007-06-10,2.73, 1.89, 1.82, 1.88, 1.60, 7.15, repro,
2007-06-11,3.53, 0.10, 4.19, 1.94, 1.71, 7.43, repro,
2007-06-12,2.78, 2.86, 9.33, 1.95, 1.72, 7.51, repro,
2007-06-13,3.60, 2.01, 5.46, 1.93, 1.65, 7.32, repro,
2007-06-14,2.20, 2.78, 6.89, 1.93, 1.65, 7.29, repro,
2007-06-15,3.04, 2.59, 7.44, 1.93, 1.69, 7.36, repro,
2007-06-16,2.88, 2.62, 6.11, 1.88, 1.61, 7.20, repro,
2007-06-17,2.76, 2.59, 6.72, 1.88, 1.61, 7.20, repro,
2007-06-18,3.44, 3.67, 10.80, 1.89, 1.60, 7.16, repro,
2007-06-19,2.72, 2.84, 2.27, 1.87, 1.59, 7.12, repro,
2007-06-20,2.54, 2.18, 0.48, 1.92, 1.68, 7.32, repro,
2007-06-21,2.35, 3.05, 7.37, 1.89, 1.60, 7.20, repro,
2007-06-22,3.71, 2.04, 4.45, 1.88, 1.61, 7.21, repro,
2007-06-23,2.79, 3.39, 6.60, 1.87, 1.59, 7.13, repro,
2007-06-24,3.46, 2.05, 2.06, 1.91, 1.65, 7.42, repro,
2007-06-25,2.67, 2.58, 7.62, 1.91, 1.67, 7.30, repro,
2007-06-26,2.75, 2.43, -1.03, 1.92, 1.68, 7.41, repro,
2007-06-27,2.60, 1.86, 3.80, 1.89, 1.60, 7.21, repro,
2007-06-28,3.14, 2.87, 0.40, 1.89, 1.60, 7.20, repro,
2007-06-29,2.36, 2.53, 7.51, 1.88, 1.60, 7.20, repro,
2007-06-30,2.72, 2.20, 6.03, 1.91, 1.68, 7.35, repro,
2007-07-01,3.66, 2.43, 6.85, 1.92, 1.69, 7.40, repro,
2007-07-02,5.17, 4.51, 6.45, 1.89, 1.62, 7.26, repro,